sat.trackr.live / text

‹ back to catalog

STARLINK-11685 [DTC]

NORAD 63552 · 2025-075E

PAYLOAD ACTIVE UNKNOWN

§ Identity

Operator
Country
US
Launch date
2025-04-13
Launch site
AFETR
Launch vehicle
Mass (kg)
RCS (m²)

Purposes: comms

External: N2YO · Heavens-Above · Gunter

§ Orbital elements

Epoch: 2026-09-19T18:10:33.406176Z

Period
91.67 min
Inclination
43.0008°
Eccentricity
0.0002369
Mean motion
15.70905471 rev/d
Perigee alt
354.7 km
Apogee alt
357.9 km
Semi-major
6,734.4 km
B*
7.6937e-4
RAAN
63.7371°
Arg perigee
248.4177°
Mean anomaly
111.6439°
Rev number
8,377

§ Raw data

STARLINK-11685 [DTC]1 63552U 25075E   26262.75733109  .00099745  00000+0  76937-3 0  99912 63552  43.0008  63.7371 0002369 248.4177 111.6439 15.70905471 83777

JSON: /api/v1/satellites/63552 · /tle

For live sub-satellite position, see the globe view (requires WebGL).

§ Visibility from observer

Set your observer location to see the next 7 days of passes ≥ 10°. The values pass through the URL so the page stays shareable.

No JS? Fill the form by hand. The geolocation button needs JavaScript.